Probability
0 0 0 0 0 0 0 0 0 0 0 0 0 0 0 0 0 0 0 0 0 0 0 0 0 0 0 0 0 0 0 0 0 0 0 0 0 0
0 0 0 0 0 0 0 0 0 0 0 0 0 0 0 0 0 0 0 0 0 0 0 0 0 0 0 0 0 0 0 0 0 0 0 0 0 0
0 0 0 0 0 0 0 0 0 0 0 0 0 0 0 0 0 0 0 0 0 0 0 0 0 0 0 0 0 0 0 0 0 0 0 0 0 0
0 0 0 0 0 0 0 0 0 0 0 0 0 0 0 0 0 0 0 0 0 0 0 0 0 0 0 0 0 0 0 0 0 0 0 0 0 0
0 0 0 0 0 0 0 0 0 0 0 0 0 0 0 0 0 0 0 0 0 0 0 0 0 0 0 0 0 0 0 0 0 0 0 0 0 0
0 0 0 0 0 0 0 0 0 0 0 0 0 0 0 0 0 0 0 0 0 0 0 0 0 0 0 0 0 0 0 0 0 0 0 0 0 0
0 0 0 0 0 0 0 0 0 0 0 0 0 0 0 0 0 0 0 0 0 0 0 0 0 0 0 0 0 0 0 0 0 0 0 0 0 0
0 0 0 0 0 0 0 0 0 0 0 0 0 0 0 0 0 0 0 0 0 0 0 0 0 0 0 0 0 0 0 0 0 0 0 0 0 0
0 0 0 0 0 0 0 0 0 0 0 0 0 0 0 0 0 0 0 0 0 0 0 0 0 0 0 0 0 0 0 0 0 0 0 0 0 0
0 0 0 0 0 0 0 0 0 0 0 0 0 0 0 0 0 0 0 0 0 0 0 0 0 0 0 0 0 0 0 0 0 0 0 0 0 0
0 0 0 0 0 0 0 0 0 0 0 0 0 0 0 0 0 0 0 0 0 0 0 0 0 0 0 0 0 0 0 0 0 0 0 0 0 0
0 0 0 0 0 0 0 0 0 0 0 0 0 0 0 0 0 0 0 0 0 0 0 0 0 0 0 0 0 0 0 0 0 0 0 0 0 0
0 0 0 0 0 0 0 0 0 0 0 0 0 0 0 0 0 0 0 0 0 0 0 0 0 0 0 0 0 0 0 0 0 0 0 0 0 0
0 0 0 0 0 0 0 0 0 0 0 0 0 0 0 0 0 0 0 0 0 0 0 0 0 0 0 0 0 0 0 0 0 0 0 0 0 0
0 0 0 0 0 0 0 0 0 0 0 0 0 0 0 0 0 0 0 0 0 0 0 0 0 0 0 0 0 0 0 0 0 0 0 0 0 0
0 0 0 0 0 0 0 0 0 0 0 0 0 0 0 0 0 0 0 0 0 0 0 0 0 0 0 0 0 0 0 0 0 0 0 0 0 0
0 0 0 0 0 0 0 0 0 0 0 0 0 0 0 0 0 0 0 0 0 0 0 0 0 0 0 0 0 0 0 0 0 0 0 0 0 0
0 0 0 0 0 0 0 0 0 0 0 0 0 0 0 0 0 0 0 0 0 0 0 0 0 0 0 0 0 0 0 0 0 0 0 0 0 0
0 0 0 0 0 0 0 0 0 0 0 0 0 0 0 0 0 0 0 0 0 0 0 0 0 0 0 0 0 0 0 0 0 0 0 0 0 0
0 0 0 0 0 0 0 0 0 0 0 0 0 0 0 0 0 0 0 0 0 0 0 0 0 0 0 0 0 0 0 0 0 0 0 0 0 0
0 0 0 0 0 0 0 0 0 0 0 0 0 0 0 0 0 0 0 0 0 0 0 0 0 0 0 0 0 0 0 0 0 0 0 0 0 0
0 0 0 0 0 0 0 0 0 0 0 0 0 0 0 0 0 0 0 0 0 0 0 0 0 0 0 0 0 0 0 0 0 0 0 0 0 0
0 0 0 0 0 0 0 0 0 0 0 0 0 0 0 0 0 0 0 0 0 0 0 0 0 0 0 0 0 0 0 0 0 0 0 0 0 0
Height
5663 5660 5658 5656 5653 5650 5648 5646 5645 5643 5642 5639 5637 5635 5634 5633 5633 5632 5632 5632 5632 5632 5633 5635 5636 5638 5640 5643 5645 5647 5650 5653 5655 5658 5661 5665 5669 5672
5651 5649 5646 5643 5641 5638 5635 5633 5631 5629 5628 5625 5623 5621 5620 5619 5618 5617 5617 5617 5617 5617 5618 5619 5621 5623 5625 5627 5629 5632 5634 5637 5639 5642 5646 5650 5654 5657
5639 5636 5634 5631 5628 5625 5622 5619 5617 5615 5613 5611 5608 5607 5605 5604 5603 5602 5601 5601 5601 5601 5602 5603 5605 5607 5608 5611 5613 5615 5617 5620 5623 5626 5629 5634 5638 5642
5627 5624 5621 5618 5615 5612 5609 5606 5603 5600 5599 5597 5594 5592 5590 5589 5588 5586 5585 5584 5585 5585 5585 5586 5588 5589 5591 5593 5595 5598 5600 5603 5606 5609 5613 5618 5622 5625
5615 5612 5609 5605 5602 5599 5596 5593 5590 5587 5584 5582 5580 5577 5575 5574 5572 5571 5569 5568 5568 5568 5568 5569 5571 5572 5574 5575 5577 5580 5583 5586 5589 5592 5596 5600 5604 5608
5602 5599 5596 5593 5589 5586 5583 5580 5577 5574 5571 5568 5566 5563 5561 5559 5557 5555 5554 5552 5552 5551 5551 5552 5554 5554 5556 5558 5560 5562 5564 5567 5570 5574 5578 5582 5586 5590
5589 5586 5583 5580 5577 5574 5571 5567 5564 5561 5558 5555 5552 5549 5546 5544 5542 5539 5538 5537 5536 5535 5536 5536 5537 5538 5538 5539 5541 5543 5546 5548 5551 5555 5559 5563 5567 5572
5577 5574 5571 5568 5565 5561 5558 5555 5552 5548 5545 5542 5539 5535 5532 5529 5526 5524 5522 5522 5521 5521 5520 5520 5520 5521 5521 5522 5523 5525 5527 5529 5532 5536 5540 5543 5548 5552
5565 5562 5559 5556 5552 5549 5546 5542 5539 5535 5532 5529 5525 5521 5518 5514 5512 5509 5507 5505 5504 5504 5504 5505 5504 5504 5504 5505 5506 5507 5509 5511 5514 5517 5520 5524 5528 5533
5553 5550 5547 5544 5540 5537 5534 5530 5526 5522 5519 5515 5512 5507 5503 5499 5496 5494 5492 5491 5490 5488 5487 5488 5488 5488 5488 5488 5488 5489 5491 5493 5495 5498 5501 5505 5509 5513
5541 5538 5535 5532 5528 5525 5522 5518 5514 5510 5506 5502 5498 5494 5490 5486 5483 5481 5478 5477 5476 5474 5472 5471 5471 5472 5472 5472 5471 5471 5473 5475 5477 5479 5482 5486 5490 5494
5530 5526 5523 5520 5516 5513 5509 5506 5502 5498 5494 5489 5485 5481 5477 5473 5470 5467 5465 5463 5461 5460 5457 5456 5455 5454 5457 5457 5456 5455 5456 5457 5459 5461 5464 5467 5470 5475
5517 5514 5511 5508 5504 5500 5497 5493 5489 5485 5481 5477 5473 5469 5465 5461 5457 5454 5451 5448 5446 5444 5442 5441 5440 5438 5438 5440 5441 5440 5440 5440 5442 5444 5446 5449 5452 5456
5505 5502 5499 5495 5492 5488 5484 5480 5476 5473 5469 5465 5461 5456 5452 5449 5445 5441 5438 5435 5432 5429 5426 5424 5423 5422 5422 5422 5424 5424 5423 5424 5425 5427 5429 5432 5435 5438
5493 5490 5486 5483 5479 5475 5471 5467 5464 5460 5456 5452 5448 5444 5440 5436 5432 5428 5425 5421 5418 5414 5411 5409 5407 5407 5406 5406 5407 5407 5407 5408 5409 5411 5413 5416 5419 5422
5481 5477 5474 5470 5467 5463 5459 5455 5451 5447 5443 5439 5435 5431 5427 5423 5419 5415 5412 5409 5405 5402 5398 5395 5393 5392 5391 5390 5390 5390 5390 5391 5393 5394 5397 5400 5403 5406
5469 5465 5462 5458 5454 5451 5447 5443 5439 5435 5431 5427 5423 5419 5414 5411 5407 5403 5400 5396 5393 5390 5387 5383 5380 5379 5377 5376 5375 5375 5375 5376 5377 5379 5381 5384 5387 5390
5457 5454 5450 5446 5443 5439 5435 5431 5427 5423 5419 5415 5411 5406 5403 5399 5395 5391 5388 5384 5381 5378 5374 5371 5369 5367 5365 5364 5362 5361 5361 5361 5363 5364 5366 5369 5373 5375
5445 5442 5438 5435 5431 5427 5423 5419 5415 5411 5407 5403 5399 5395 5391 5387 5384 5380 5376 5373 5369 5366 5362 5359 5356 5354 5352 5352 5350 5347 5347 5347 5348 5350 5351 5354 5357 5360
5433 5430 5427 5423 5419 5415 5411 5407 5403 5399 5395 5391 5387 5383 5379 5376 5372 5368 5365 5361 5358 5354 5351 5347 5344 5341 5339 5339 5338 5337 5334 5333 5334 5336 5337 5339 5342 5345
5422 5418 5415 5411 5408 5404 5400 5396 5392 5388 5384 5380 5376 5372 5368 5364 5361 5357 5353 5349 5346 5343 5340 5336 5332 5330 5327 5326 5326 5325 5323 5321 5320 5321 5323 5325 5328 5331
5411 5407 5404 5400 5396 5392 5388 5384 5381 5377 5373 5369 5365 5361 5357 5354 5350 5346 5342 5339 5335 5332 5329 5326 5322 5319 5317 5315 5314 5313 5312 5310 5309 5309 5310 5312 5314 5318
5400 5397 5393 5389 5385 5381 5377 5374 5370 5366 5362 5358 5354 5351 5347 5343 5339 5336 5332 5329 5325 5322 5319 5316 5313 5310 5307 5305 5303 5302 5300 5299 5299 5299 5300 5300 5302 5305
Wind_Speed
44 44 44 44 44 44 44 44 44 44 44 45 46 46 47 47 47 48 48 48 49 49 49 50 50 51 52 53 53 53 53 54 54 54 53 53 52 52
44 44 44 44 45 45 46 46 46 46 46 46 47 47 47 48 48 49 50 51 51 52 51 51 52 53 52 53 55 55 55 55 54 54 54 53 54 54
44 44 45 45 46 46 47 47 47 47 47 47 47 47 48 48 48 48 49 51 51 52 53 52 52 54 54 54 54 54 54 55 56 56 56 55 55 54
45 45 45 46 46 47 47 47 47 46 47 47 47 48 48 49 50 50 50 50 52 53 53 53 54 54 55 55 56 55 54 55 57 58 57 57 56 55
45 45 46 46 46 46 46 46 45 46 46 46 46 47 48 48 50 50 50 51 52 53 54 54 54 55 55 56 56 56 56 56 58 59 60 60 59 57
45 45 46 46 45 45 45 45 45 45 45 45 45 46 48 48 49 50 50 50 51 52 53 54 55 55 56 56 57 57 57 58 58 59 59 60 60 60
44 45 45 44 44 44 44 44 44 44 45 45 46 47 48 48 48 49 49 50 50 51 52 53 54 54 55 56 57 58 58 59 59 59 60 60 60 60
43 43 44 43 43 43 43 43 44 44 44 45 46 47 47 48 48 48 48 49 49 50 51 51 52 52 53 54 55 56 56 58 58 59 60 60 60 59
43 43 43 42 42 43 43 43 44 44 45 45 46 46 46 46 47 47 47 46 47 49 50 50 51 52 53 53 54 54 54 55 56 57 59 59 60 61
42 42 42 42 42 42 43 43 44 44 45 45 46 45 45 45 45 44 43 43 43 45 47 48 49 50 51 53 54 54 55 55 56 57 58 58 58 59
42 41 42 42 43 43 43 43 44 45 45 45 45 45 45 44 44 43 42 42 43 44 46 46 47 48 49 50 52 53 54 54 55 56 57 58 58 58
42 42 42 43 43 43 43 44 44 44 45 45 45 45 44 44 42 42 42 42 43 44 45 46 46 47 46 47 48 49 50 51 53 54 55 56 57 58
42 42 42 43 43 44 44 44 44 44 44 45 45 44 44 43 42 42 42 42 43 44 45 45 46 46 46 45 46 47 49 49 50 51 53 53 54 55
42 43 43 44 44 44 44 44 44 44 44 44 44 44 44 43 43 43 42 43 44 45 45 45 45 46 46 46 46 46 47 47 47 47 48 49 51 52
42 43 43 43 43 44 44 44 44 44 44 44 44 44 44 43 42 42 42 43 43 43 43 42 42 43 43 43 43 44 45 45 45 45 45 46 47 49
42 42 43 43 43 44 43 43 43 43 43 43 43 43 42 41 41 41 41 41 40 40 40 40 40 40 40 40 40 40 42 42 43 45 45 45 46 46
41 41 42 42 42 43 43 43 42 42 42 43 42 41 40 40 40 39 39 39 38 37 37 38 38 38 38 38 38 38 39 40 41 41 42 42 42 43
40 40 40 41 41 41 41 41 42 42 42 42 41 40 39 38 38 38 38 37 37 36 36 37 37 37 36 36 37 36 37 38 39 39 40 40 40 42
39 39 40 40 40 40 40 40 41 41 41 40 39 38 38 37 37 37 37 36 36 36 36 36 36 36 35 34 34 36 36 37 38 38 39 40 40 40
39 39 39 40 40 40 40 40 40 39 39 38 37 37 37 36 36 36 36 36 36 35 35 35 35 35 34 32 31 32 35 35 36 36 38 39 39 39
38 38 38 39 39 39 39 39 38 37 37 37 36 36 36 35 35 35 35 35 34 34 33 34 34 33 33 32 30 30 32 34 34 34 35 36 37 38
37 37 37 38 38 38 37 37 36 36 36 36 35 35 35 35 34 34 33 32 32 32 31 31 30 30 30 30 30 29 29 30 31 32 32 33 33 35
36 36 36 36 36 36 35 35 34 35 35 35 34 34 34 33 32 31 30 30 30 29 29 28 28 28 28 28 28 28 27 27 27 27 28 30 30 31
Wind_Direction
289 288 287 287 286 286 286 285 283 281 280 280 278 277 276 274 273 271 270 269 268 266 264 263 262 261 260 258 258 258 257 257 256 256 255 254 253 253
288 287 287 287 287 286 286 285 284 283 282 281 279 277 276 274 273 272 270 269 267 265 264 263 262 261 260 260 260 259 257 256 255 255 255 255 254 253
287 287 288 288 288 287 286 286 285 284 283 282 280 278 276 275 274 272 271 269 267 266 265 263 262 261 260 260 259 259 257 257 255 254 253 253 254 254
287 287 288 288 288 288 287 287 286 285 284 283 282 280 277 276 275 273 272 270 267 266 265 264 263 262 261 260 260 259 258 257 254 252 253 253 254 253
287 287 288 288 288 289 289 288 287 287 286 285 283 281 279 278 277 275 273 271 268 266 266 264 263 263 262 261 260 259 257 256 255 253 253 253 252 252
287 288 289 289 289 289 289 289 289 288 288 287 285 284 282 282 280 277 274 273 271 268 267 265 263 263 262 261 261 260 258 256 256 255 254 253 252 251
289 289 289 290 290 290 290 289 290 290 289 288 288 287 285 283 282 279 276 274 272 270 268 267 265 264 263 261 260 260 259 258 256 255 253 253 253 251
290 289 290 289 290 290 291 291 291 291 290 290 290 289 288 286 284 281 278 275 272 270 269 268 266 265 264 263 261 261 260 259 257 255 254 254 253 251
290 290 290 289 290 291 291 292 292 292 292 291 291 291 290 288 285 283 280 277 273 271 270 269 268 266 264 263 262 261 260 259 257 255 253 254 253 252
290 290 290 290 290 291 291 292 293 294 293 293 292 292 291 290 288 285 282 279 277 275 273 271 269 268 266 265 264 263 261 259 258 256 254 253 252 251
290 290 290 291 291 291 292 293 294 294 295 295 294 293 292 292 290 286 283 281 279 278 277 275 272 270 268 266 265 264 262 260 259 257 255 252 251 251
290 290 290 291 292 292 293 293 294 295 295 296 295 294 294 293 291 288 286 283 282 280 278 277 275 272 269 267 265 264 263 261 260 258 256 255 252 250
289 290 291 292 292 293 293 293 294 295 295 295 295 294 294 293 291 290 289 287 285 284 281 278 276 274 271 268 266 265 263 262 260 258 256 255 253 251
290 291 291 292 292 293 294 294 294 294 295 295 295 294 294 292 291 291 290 289 288 286 284 280 278 275 272 270 268 266 264 263 260 258 256 255 253 250
291 291 291 292 293 294 295 295 294 295 295 295 295 295 294 293 292 291 291 291 291 289 286 283 280 277 275 273 270 267 264 262 260 257 255 254 252 250
292 291 292 292 293 294 294 295 295 295 295 296 296 296 294 293 293 293 293 293 292 290 287 285 282 280 278 276 272 268 265 262 260 258 256 254 252 251
291 292 293 293 294 295 295 295 296 296 296 297 298 297 295 294 294 294 294 294 293 291 288 286 284 283 281 278 274 270 266 263 261 259 256 254 252 250
292 293 294 295 296 296 296 296 296 296 297 297 297 297 295 295 294 294 295 294 293 292 290 287 285 284 282 280 276 272 267 264 261 260 257 254 251 250
292 293 294 295 296 296 297 297 297 297 297 298 297 297 296 295 295 294 295 295 294 293 291 289 287 285 282 280 277 274 270 265 262 259 257 255 251 248
293 294 295 295 296 297 297 298 298 298 298 298 298 298 297 296 296 295 295 295 294 293 292 290 288 286 284 281 278 275 272 270 266 261 257 254 251 247
294 294 295 296 297 298 298 298 298 298 299 299 299 299 298 298 298 297 296 295 295 294 293 292 290 287 285 283 280 276 274 273 270 264 259 254 249 246
294 295 297 298 298 298 298 298 298 299 300 300 299 299 299 300 299 298 297 296 296 296 295 293 291 290 288 286 283 280 276 274 271 266 260 255 249 244
295 296 297 299 300 300 299 298 298 299 300 300 299 299 300 300 300 299 298 298 298 298 298 296 294 293 291 290 287 284 279 274 270 265 260 256 252 246